FW0170 Weather Reports


Display with metric or nautical units.
time (UTC)temp
F
wind
direction
speed
MPH
gust
MPH
rain 1hr
in
rain 24hr
in
rain mn
in
humidity
%
barometer
mb
20260507192505 53 355 0.0 0.0 0.00 0.00 0.00 72 1014.6
20260507192005 54 31 0.0 0.0 0.00 0.00 0.00 71 1014.2
20260507191505 54 172 0.0 0.0 0.00 0.00 0.00 71 1014.2
20260507191005 54 242 0.0 0.0 0.00 0.00 0.00 71 1014.2
20260507190505 54 282 0.0 0.0 0.00 0.00 0.00 71 1014.2
20260507190006 54 25 1.0 2.0 0.00 0.00 0.00 71 1014.2
20260507185505 54 147 0.0 2.0 0.00 0.00 0.00 70 1014.2
20260507185005 54 228 2.0 8.0 0.00 0.00 0.00 70 1014.4
20260507184505 54 245 2.0 8.0 0.00 0.00 0.00 70 1014.5
20260507184006 54 240 0.0 2.0 0.00 0.00 0.00 71 1014.2
20260507183505 54 307 0.0 2.0 0.00 0.00 0.00 70 1014.2
20260507183005 55 261 0.0 2.0 0.00 0.00 0.00 70 1014.2
20260507182506 55 276 0.0 2.0 0.00 0.00 0.00 70 1014.2
20260507182005 55 316 0.0 2.0 0.00 0.00 0.00 70 1014.2
20260507181505 55 314 0.0 2.0 0.00 0.00 0.00 70 1014.6
20260507181005 54 131 1.0 5.0 0.00 0.00 0.00 70 1014.2
20260507180505 54 220 2.0 5.0 0.00 0.00 0.00 70 1014.2
20260507180007 54 105 0.0 5.0 0.00 0.00 0.00 70 1014.2
20260507175005 54 47 1.0 2.0 0.00 0.00 0.00 70 1014.2
20260507174505 54 337 0.0 0.0 0.00 0.00 0.00 71 1014.2
20260507174005 54 215 0.0 0.0 0.00 0.00 0.00 72 1014.2
20260507173506 54 213 0.0 10.0 0.00 0.00 0.00 71 1014.6
20260507173005 54 229 5.0 10.0 0.00 0.00 0.00 71 1014.6
20260507172505 54 248 1.0 5.0 0.00 0.00 0.00 71 1014.2
20260507172005 54 246 2.0 5.0 0.00 0.00 0.00 70 1014.6
20260507171505 54 279 0.0 2.0 0.00 0.00 0.00 70 1014.6
20260507171005 54 253 1.0 10.0 0.00 0.00 0.00 70 1014.6
20260507170505 54 188 6.0 10.0 0.00 0.00 0.00 70 1014.6
20260507170006 54 193 1.0 8.0 0.00 0.00 0.00 70 1014.6
20260507165505 53 280 6.0 8.0 0.00 0.00 0.00 70 1014.6
20260507165005 53 242 3.0 5.0 0.00 0.00 0.00 70 1014.6
20260507164504 53 222 2.0 5.0 0.00 0.00 0.00 71 1014.6
20260507164005 53 175 2.0 5.0 0.00 0.00 0.00 71 1014.6
20260507163505 53 136 0.0 5.0 0.00 0.00 0.00 71 1014.9
20260507163005 53 187 2.0 8.0 0.00 0.00 0.00 71 1014.6
20260507162504 53 287 2.0 8.0 0.00 0.00 0.00 71 1014.9
20260507161006 53 183 3.0 5.0 0.00 0.00 0.00 72 1014.9
20260507160506 53 207 3.0 8.0 0.00 0.00 0.00 72 1014.6
20260507160005 53 220 6.0 10.0 0.00 0.00 0.00 72 1014.6
20260507155504 53 209 5.0 10.0 0.00 0.00 0.00 72 1014.6
20260507155005 53 185 4.0 8.0 0.00 0.00 0.00 72 1014.6
20260507154506 53 165 1.0 5.0 0.00 0.00 0.00 72 1014.7
20260507154006 53 331 3.0 10.0 0.00 0.00 0.00 71 1014.9
20260507153505 53 184 3.0 10.0 0.00 0.00 0.00 71 1014.9
20260507153005 53 241 2.0 5.0 0.00 0.00 0.00 71 1014.6
20260507152006 54 160 5.0 10.0 0.00 0.00 0.00 71 1014.6
20260507151504 54 280 6.0 10.0 0.00 0.00 0.00 71 1014.6
20260507151005 54 217 5.0 8.0 0.00 0.00 0.00 70 1014.6
20260507150506 54 254 2.0 5.0 0.00 0.00 0.00 71 1014.9
20260507150005 54 278 2.0 5.0 0.00 0.00 0.00 70 1014.6
20260507145505 55 354 3.0 10.0 0.00 0.00 0.00 70 1014.6
20260507145007 55 182 5.0 10.0 0.00 0.00 0.00 70 1014.9
20260507144505 55 290 3.0 10.0 0.00 0.00 0.00 70 1014.6
20260507144006 55 255 6.0 10.0 0.00 0.00 0.00 70 1014.9
20260507143505 56 205 2.0 10.0 0.00 0.00 0.00 69 1014.6
20260507142505 56 191 6.0 13.0 0.00 0.00 0.00 68 1014.9
20260507142005 56 201 8.0 13.0 0.00 0.00 0.00 68 1014.9
20260507141510 56 208 6.0 10.0 0.00 0.00 0.00 67 1014.9
20260507140505 56 260 5.0 10.0 0.00 0.00 0.00 67 1014.9
20260507135506 56 233 3.0 8.0 0.00 0.00 0.00 67 1014.9
20260507135005 56 307 1.0 5.0 0.00 0.00 0.00 68 1014.9
20260507134505 56 222 1.0 2.0 0.00 0.00 0.00 69 1014.9
20260507134006 57 233 1.0 8.0 0.00 0.00 0.00 67 1014.9
20260507133505 57 227 3.0 8.0 0.00 0.00 0.00 67 1015.2
20260507133006 57 220 6.0 10.0 0.00 0.00 0.00 66 1015.2
20260507132505 57 253 2.0 10.0 0.00 0.00 0.00 66 1015.0
20260507132005 57 6 1.0 2.0 0.00 0.00 0.00 66 1015.1
20260507131505 57 202 1.0 2.0 0.00 0.00 0.00 66 1015.2
20260507131005 57 247 1.0 2.0 0.00 0.00 0.00 65 1015.2
20260507130505 57 257 2.0 5.0 0.00 0.00 0.00 65 1015.2
20260507130005 58 201 3.0 5.0 0.00 0.00 0.00 64 1015.2
20260507125505 58 192 2.0 5.0 0.00 0.00 0.00 64 1014.9
20260507125006 58 41 2.0 5.0 0.00 0.00 0.00 65 1014.9
20260507124505 58 186 3.0 5.0 0.00 0.00 0.00 63 1015.2
20260507123505 58 232 2.0 10.0 0.00 0.00 0.00 61 1015.2
20260507122507 58 77 1.0 8.0 0.00 0.00 0.00 62 1015.2
20260507121505 57 263 5.0 10.0 0.00 0.00 0.00 61 1015.2
20260507121011 57 202 2.0 10.0 0.00 0.00 0.00 60 1015.2
20260507120505 57 224 8.0 10.0 0.00 0.00 0.00 61 1015.2
20260507120006 56 212 5.0 10.0 0.00 0.00 0.00 62 1015.2
20260507115505 56 316 3.0 8.0 0.00 0.00 0.00 64 1015.2
20260507115005 56 23 3.0 5.0 0.00 0.00 0.00 65 1015.2
20260507114005 55 122 1.0 5.0 0.00 0.00 0.00 67 1015.2
20260507113005 54 193 3.0 5.0 0.00 0.00 0.00 67 1015.2
20260507112505 53 23 1.0 2.0 0.00 0.00 0.00 68 1015.2
20260507112005 53 211 1.0 2.0 0.00 0.00 0.00 68 1015.2
20260507111507 53 22 0.0 2.0 0.00 0.00 0.00 69 1015.6
20260507110005 53 269 1.0 2.0 0.00 0.00 0.00 69 1015.6
20260507105516 53 323 1.0 2.0 0.00 0.00 0.00 71 1015.6
20260507105009 53 157 0.0 2.0 0.00 0.00 0.00 70 1015.9
20260507104506 53 13 1.0 2.0 0.00 0.00 0.00 70 1015.9
20260507104005 53 13 1.0 2.0 0.00 0.00 0.00 70 1015.9
20260507103509 54 179 5.0 8.0 0.00 0.00 0.00 69 1015.7
20260507103005 54 182 6.0 8.0 0.00 0.00 0.00 68 1015.6
20260507102506 54 182 6.0 8.0 0.00 0.00 0.00 68 1015.6
20260507102006 54 182 5.0 10.0 0.00 0.00 0.00 68 1015.6
20260507101507 54 286 4.0 10.0 0.00 0.00 0.00 67 1015.6
20260507101005 53 15 2.0 5.0 0.00 0.00 0.00 67 1015.6
20260507100508 53 12 1.0 5.0 0.00 0.00 0.00 66 1015.9
20260507100005 53 253 0.0 10.0 0.00 0.00 0.00 68 1015.6
20260507095505 53 76 8.0 10.0 0.00 0.00 0.00 67 1015.6
20260507094005 52 6 0.0 8.0 0.00 0.00 0.00 69 1016.3
20260507093005 52 265 0.0 2.0 0.00 0.00 0.00 72 1015.6
20260507092019 52 338 1.0 2.0 0.00 0.00 0.00 71 1015.9
20260507091006 51 6 0.0 8.0 0.00 0.00 0.00 70 1015.9
20260507090006 51 303 1.0 8.0 0.00 0.00 0.00 71 1015.9
20260507085510 50 70 1.0 2.0 0.00 0.00 0.00 71 1016.1
20260507084007 49 161 1.0 2.0 0.00 0.00 0.00 72 1016.3
20260507083513 49 93 1.0 5.0 0.00 0.00 0.00 71 1016.3
20260507083005 48 37 2.0 5.0 0.00 0.00 0.00 72 1016.3
20260507082506 48 240 1.0 5.0 0.00 0.00 0.00 74 1015.9
20260507082005 47 287 1.0 5.0 0.00 0.00 0.00 75 1016.3
20260507081505 47 353 1.0 5.0 0.00 0.00 0.00 75 1015.9
20260507081006 47 72 0.0 2.0 0.00 0.00 0.00 75 1016.3
20260507080505 47 71 0.0 2.0 0.00 0.00 0.00 75 1016.3
20260507080005 47 324 0.0 2.0 0.00 0.00 0.00 76 1016.3
20260507075005 46 85 1.0 2.0 0.00 0.00 0.00 76 1015.9
20260507074504 46 357 0.0 2.0 0.00 0.00 0.00 77 1016.3
20260507073505 46 88 3.0 5.0 0.00 0.00 0.00 77 1016.3
20260507073005 45 58 1.0 2.0 0.00 0.00 0.00 78 1015.9
20260507072506 45 305 1.0 5.0 0.00 0.00 0.00 78 1015.9
20260507072005 45 236 1.0 5.0 0.00 0.00 0.00 79 1016.3
20260507071505 44 93 2.0 2.0 0.00 0.00 0.00 79 1015.9
20260507070505 44 281 2.0 5.0 0.00 0.00 0.00 80 1016.3
20260507070010 44 308 1.0 2.0 0.00 0.00 0.00 80 1015.9
20260507065506 44 258 0.0 2.0 0.00 0.00 0.00 81 1015.9
20260507065006 44 256 1.0 2.0 0.00 0.00 0.00 81 1015.9
20260507064005 44 50 0.0 2.0 0.00 0.00 0.00 81 1015.9
20260507063506 44 324 0.0 2.0 0.00 0.00 0.00 81 1015.9
20260507063005 43 290 0.0 2.0 0.00 0.00 0.00 81 1016.3
20260507062505 43 46 0.0 2.0 0.00 0.00 0.00 81 1015.9
20260507062005 43 196 0.0 0.0 0.00 0.00 0.00 82 1015.9
20260507061504 43 63 0.0 0.0 0.00 0.00 0.00 82 1015.9
20260507061005 43 52 0.0 0.0 0.00 0.00 0.00 82 1015.9
20260507060505 43 267 0.0 0.0 0.00 0.00 0.00 82 1015.9
20260507060005 44 244 0.0 2.0 0.00 0.00 0.00 82 1015.9
20260507055504 43 115 0.0 2.0 0.00 0.00 0.00 82 1015.9
20260507055005 43 111 0.0 0.0 0.00 0.00 0.00 81 1015.9
20260507054505 43 120 0.0 0.0 0.00 0.00 0.00 81 1015.9
20260507054005 43 45 0.0 2.0 0.00 0.00 0.00 81 1015.9
20260507053506 42 301 0.0 2.0 0.00 0.00 0.00 82 1015.9
20260507053005 41 350 0.0 0.0 0.00 0.00 0.00 85 1015.9
20260507052005 40 330 0.0 0.0 0.00 0.00 0.00 87 1015.9
20260507051505 39 322 0.0 0.0 0.00 0.00 0.00 88 1015.6
20260507051005 39 12 0.0 0.0 0.00 0.00 0.00 89 1015.9
20260507050006 37 269 0.0 2.0 0.00 0.00 0.00 90 1015.6
20260507045005 36 219 0.0 0.0 0.00 0.00 0.00 91 1015.9
20260507044505 36 133 0.0 0.0 0.00 0.00 0.00 91 1015.9
20260507044005 36 209 0.0 0.0 0.00 0.00 0.00 91 1015.9
20260507043505 36 195 0.0 0.0 0.00 0.00 0.00 91 1015.9
20260507043006 36 188 0.0 0.0 0.00 0.00 0.00 90 1015.9
20260507042505 35 239 0.0 0.0 0.00 0.00 0.00 90 1015.9
20260507042005 35 220 0.0 0.0 0.00 0.00 0.00 90 1015.9
20260507041505 35 159 0.0 0.0 0.00 0.00 0.00 90 1015.6
20260507041005 35 286 0.0 0.0 0.00 0.00 0.00 90 1015.9
20260507040505 35 179 0.0 0.0 0.00 0.00 0.00 90 1015.9
20260507040005 35 198 0.0 0.0 0.00 0.00 0.00 90 1015.9
20260507035504 36 169 0.0 0.0 0.00 0.00 0.00 90 1015.9
20260507035006 36 226 0.0 0.0 0.00 0.00 0.00 89 1015.9
20260507034505 36 215 0.0 0.0 0.00 0.00 0.00 89 1015.9
20260507034005 36 268 0.0 0.0 0.00 0.00 0.00 89 1015.9
20260507033505 36 296 0.0 0.0 0.00 0.00 0.00 89 1015.9
20260507033005 36 352 0.0 0.0 0.00 0.00 0.00 89 1015.9
20260507032505 36 127 0.0 0.0 0.00 0.00 0.00 89 1015.9
20260507032005 36 324 0.0 0.0 0.00 0.00 0.00 89 1015.9
20260507031505 36 336 0.0 0.0 0.00 0.00 0.00 89 1015.9
20260507031005 36 286 0.0 0.0 0.00 0.00 0.00 88 1015.9
20260507030505 36 17 0.0 0.0 0.00 0.00 0.00 88 1015.9
20260507030005 36 35 0.0 0.0 0.00 0.00 0.00 88 1015.9
20260507025505 36 69 0.0 0.0 0.00 0.00 0.00 88 1015.9
20260507025005 36 71 0.0 0.0 0.00 0.00 0.00 88 1015.9
20260507024505 36 341 0.0 0.0 0.00 0.00 0.00 88 1016.0
20260507024005 36 27 0.0 0.0 0.00 0.00 0.00 88 1016.2
20260507023505 36 242 0.0 0.0 0.00 0.00 0.00 87 1015.9
20260507023005 36 264 0.0 0.0 0.00 0.00 0.00 87 1015.9
20260507022505 36 283 0.0 0.0 0.00 0.00 0.00 87 1015.9
20260507022006 36 300 0.0 0.0 0.00 0.00 0.00 87 1016.3
20260507021505 36 279 0.0 0.0 0.00 0.00 0.00 86 1016.3
20260507021005 36 294 0.0 0.0 0.00 0.00 0.00 86 1016.3
20260507020505 36 185 0.0 0.0 0.00 0.00 0.00 86 1016.3
20260507020005 36 77 0.0 0.0 0.00 0.00 0.00 85 1015.9
20260507015505 36 181 0.0 0.0 0.00 0.00 0.00 85 1015.9
20260507015005 37 308 0.0 0.0 0.00 0.00 0.00 85 1015.9
20260507014505 37 240 0.0 0.0 0.00 0.00 0.00 85 1015.9
20260507014005 37 244 0.0 0.0 0.00 0.00 0.00 85 1016.3
20260507013506 37 278 0.0 0.0 0.00 0.00 0.00 84 1015.9
20260507013005 37 197 0.0 0.0 0.00 0.00 0.00 84 1015.9
20260507012505 37 207 0.0 0.0 0.00 0.00 0.00 84 1016.3
20260507012005 37 204 0.0 0.0 0.00 0.00 0.00 83 1016.3
20260507011006 38 110 0.0 0.0 0.00 0.00 0.00 83 1016.3
20260507010505 38 166 0.0 0.0 0.00 0.00 0.00 82 1016.3
20260507010005 39 227 0.0 0.0 0.00 0.00 0.00 81 1016.3
20260507005505 39 212 0.0 0.0 0.00 0.00 0.00 81 1016.3
20260507005006 39 290 0.0 2.0 0.00 0.00 0.00 80 1016.3
20260507004505 39 171 1.0 2.0 0.00 0.00 0.00 80 1016.3
20260507004005 39 240 0.0 2.0 0.00 0.00 0.00 80 1016.3
20260507003506 39 222 0.0 2.0 0.00 0.00 0.00 80 1016.3
20260507003005 39 197 0.0 2.0 0.00 0.00 0.00 80 1016.3
20260507002505 39 243 1.0 2.0 0.00 0.00 0.00 81 1016.3
20260507002006 39 221 0.0 2.0 0.00 0.00 0.00 82 1016.3
20260507001505 38 242 1.0 2.0 0.00 0.00 0.00 83 1016.3
20260507001005 38 111 0.0 2.0 0.00 0.00 0.00 83 1016.3
20260507000505 38 183 0.0 2.0 0.00 0.00 0.00 83 1016.3
20260507000005 38 334 0.0 2.0 0.00 0.00 0.00 83 1016.3
20260506235506 38 191 1.0 2.0 0.00 0.00 0.00 84 1016.3
20260506235005 38 198 0.0 2.0 0.00 0.00 0.00 84 1016.3
20260506234505 38 234 0.0 2.0 0.00 0.00 0.00 83 1016.1
20260506234005 38 287 0.0 0.0 0.00 0.00 0.00 83 1016.1
20260506233505 39 329 0.0 0.0 0.00 0.00 0.00 83 1016.3
20260506233006 39 341 0.0 0.0 0.00 0.00 0.00 83 1016.3
20260506232505 39 87 0.0 0.0 0.00 0.00 0.00 83 1016.3
20260506232005 39 76 0.0 0.0 0.00 0.00 0.00 82 1016.3
20260506231505 39 21 0.0 0.0 0.00 0.00 0.00 82 1016.3
20260506230505 39 209 0.0 0.0 0.00 0.00 0.00 82 1016.3
20260506230005 39 242 0.0 0.0 0.00 0.00 0.00 82 1016.3
20260506225505 39 236 0.0 0.0 0.00 0.00 0.00 81 1016.3
20260506224505 39 199 0.0 2.0 0.00 0.00 0.00 81 1016.3
20260506224005 39 219 0.0 2.0 0.00 0.00 0.00 81 1016.6
20260506223005 39 193 1.0 2.0 0.00 0.00 0.00 81 1016.3
20260506222505 39 192 0.0 2.0 0.00 0.00 0.00 81 1016.3
20260506222005 39 227 0.0 2.0 0.00 0.00 0.00 82 1016.6
20260506221006 39 203 0.0 0.0 0.00 0.00 0.00 80 1016.3
20260506220505 40 232 0.0 0.0 0.00 0.00 0.00 79 1016.3
20260506220005 40 235 0.0 0.0 0.00 0.00 0.00 78 1016.6
20260506215508 40 227 0.0 0.0 0.00 0.00 0.00 78 1016.6
20260506215006 40 223 0.0 0.0 0.00 0.00 0.00 78 1016.6
20260506214005 40 288 0.0 0.0 0.00 0.00 0.00 77 1016.6
20260506213505 40 234 0.0 0.0 0.00 0.00 0.00 77 1016.6
20260506212006 40 305 0.0 0.0 0.00 0.00 0.00 77 1016.6
20260506211505 40 8 0.0 0.0 0.00 0.00 0.00 77 1016.5
20260506210505 41 156 0.0 0.0 0.00 0.00 0.00 76 1016.6
20260506210008 41 173 0.0 0.0 0.00 0.00 0.00 76 1016.6
20260506204508 41 190 0.0 0.0 0.00 0.00 0.00 74 1016.3
20260506204005 41 163 0.0 0.0 0.00 0.00 0.00 74 1016.3
20260506203514 41 163 0.0 0.0 0.00 0.00 0.00 74 1016.3
20260506203009 42 173 0.0 0.0 0.00 0.00 0.00 73 1016.6
20260506200505 43 159 0.0 0.0 0.00 0.00 0.00 72 1016.6
20260506200014 44 173 0.0 0.0 0.00 0.00 0.00 72 1016.6
20260506195506 45 132 0.0 0.0 0.00 0.00 0.00 70 1016.6
20260506194505 45 218 0.0 0.0 0.00 0.00 0.00 69 1016.3
20260506194006 46 107 0.0 0.0 0.00 0.00 0.00 67 1016.3
20260506193009 47 239 0.0 2.0 0.00 0.00 0.00 65 1016.3